GW0305 Weather Reports


time (UTC)temp
C
wind
direction
speed
KPH
gust
KPH
rain 1hr
cm
rain 24hr
cm
rain mn
cm
humidity
%
barometer
mb
20260506104152 20 23 6.4 11.3 0.00 0.03 0.03 97 1020.3
20260506103643 20 23 4.8 11.3 0.00 0.03 0.03 97 1020.3
20260506103134 20 23 3.2 11.3 0.00 0.03 0.03 97 1020.2
20260506102113 20 23 3.2 9.7 0.00 0.03 0.03 97 1020.3
20260506101603 20 68 0.0 12.9 0.00 0.03 0.03 97 1020.3
20260506101053 20 135 3.2 12.9 0.00 0.03 0.03 97 1020.3
20260506100542 20 68 3.2 9.7 0.00 0.03 0.03 97 1020.5
20260506100033 20 45 4.8 9.7 0.00 0.03 0.03 97 1020.3
20260506095522 20 113 3.2 14.5 0.00 0.03 0.03 97 1020.6
20260506095012 20 68 4.8 14.5 0.00 0.03 0.03 97 1020.6
20260506094459 20 45 3.2 9.7 0.00 0.03 0.03 97 1020.7
20260506093442 20 23 3.2 11.3 0.03 0.03 0.03 97 1020.6
20260506092931 20 23 4.8 9.7 0.03 0.03 0.03 97 1020.8
20260506092421 20 23 3.2 6.4 0.03 0.03 0.03 97 1021.0
20260506090341 20 90 1.6 11.3 0.03 0.03 0.03 96 1020.9
20260506085830 20 23 3.2 14.5 0.03 0.03 0.03 96 1020.9
20260506085320 20 23 6.4 14.5 0.03 0.03 0.03 96 1020.9
20260506084810 20 135 4.8 6.4 0.03 0.03 0.03 96 1021.1
20260506084300 20 45 3.2 9.7 0.03 0.03 0.03 96 1021.0
20260506083750 20 90 0.0 9.7 0.00 0.00 0.00 96 1020.9
20260506083239 20 68 3.2 11.3 0.00 0.00 0.00 96 1021.1
20260506082729 20 0 1.6 11.3 0.00 0.00 0.00 96 1020.9
20260506082220 20 68 3.2 12.9 0.00 0.00 0.00 96 1021.1
20260506081710 20 248 3.2 12.9 0.00 0.00 0.00 96 1021.1
20260506081200 20 45 3.2 9.7 0.00 0.00 0.00 96 1021.4
20260506080649 20 68 3.2 11.3 0.00 0.00 0.00 96 1021.4
20260506080139 20 90 1.6 11.3 0.00 0.00 0.00 96 1021.4
20260506073038 19 68 1.6 6.4 0.00 0.00 0.00 95 1021.7
20260506072528 19 90 3.2 6.4 0.00 0.00 0.00 95 1021.6
20260506072018 19 113 3.2 6.4 0.00 0.00 0.00 95 1021.6
20260506071516 19 113 3.2 6.4 0.00 0.00 0.00 95 1022.0
20260506070958 19 45 1.6 6.4 0.00 0.00 0.00 95 1021.8
20260506062053 20 23 3.2 6.4 0.00 0.30 0.00 94 1022.5
20260506061033 20 68 0.0 6.4 0.00 0.30 0.00 94 1022.6
20260506060522 20 45 1.6 6.4 0.00 0.30 0.00 94 1022.5
20260506050831 20 315 3.2 9.7 0.00 0.30 0.00 92 1022.8
20260506050321 20 45 3.2 6.4 0.00 0.30 0.00 92 1022.9
20260506044752 20 68 3.2 11.3 0.00 0.30 0.00 92 1023.0
20260506044241 20 23 6.4 11.3 0.00 0.30 0.00 92 1023.1
20260506043731 20 68 3.2 6.4 0.00 0.30 0.00 92 1023.1
20260506043220 20 68 3.2 6.4 0.00 0.30 0.00 92 1023.2
20260506042712 20 158 1.6 9.7 0.00 0.30 0.00 92 1023.2
20260506042159 20 45 3.2 9.7 0.00 0.30 0.00 92 1023.2
20260506041652 20 68 3.2 6.4 0.00 0.30 0.00 91 1023.0
20260506041140 20 113 3.2 9.7 0.00 0.30 0.00 91 1023.1
20260506040630 20 90 3.2 9.7 0.00 0.30 0.00 92 1023.3
20260506040130 20 23 3.2 9.7 0.00 0.30 0.00 92 1023.2
20260506035609 20 90 1.6 6.4 0.00 0.30 0.00 92 1023.4
20260506035100 20 68 3.2 6.4 0.00 0.30 0.00 91 1023.0
20260506034040 20 90 3.2 6.4 0.00 0.30 0.00 92 1023.3
20260506033530 20 68 1.6 6.4 0.00 0.30 0.00 92 1023.4
20260506033021 20 45 1.6 6.4 0.00 0.30 0.00 92 1023.3
20260506032509 20 68 3.2 6.4 0.00 0.30 0.00 92 1023.4
20260506031449 20 45 1.6 6.4 0.00 0.30 0.00 92 1023.3
20260506030429 20 68 1.6 9.7 0.00 0.30 0.00 91 1023.4
20260506025918 20 90 1.6 6.4 0.00 0.30 0.30 91 1023.5
20260506024348 20 45 3.2 6.4 0.00 0.30 0.30 91 1023.3
20260506023838 20 68 3.2 6.4 0.00 0.30 0.30 91 1023.6
20260506023328 20 90 1.6 6.4 0.00 0.30 0.30 91 1023.6
20260506022818 20 45 0.0 6.4 0.00 0.30 0.30 91 1023.4
20260506022308 20 135 1.6 6.4 0.00 0.30 0.30 91 1023.5
20260506021758 20 68 1.6 6.4 0.00 0.30 0.30 91 1023.4
20260506021247 20 68 1.6 3.2 0.00 0.30 0.30 91 1023.5
20260506020737 20 68 0.0 3.2 0.00 0.30 0.30 91 1023.8
20260506020227 20 90 0.0 6.4 0.00 0.30 0.30 90 1024.0
20260506015717 20 45 3.2 6.4 0.00 0.30 0.30 90 1023.8
20260506015208 20 90 1.6 6.4 0.00 0.30 0.30 89 1023.8
20260506014656 20 113 3.2 6.4 0.00 0.30 0.30 89 1023.6
20260506014147 20 135 1.6 6.4 0.00 0.30 0.30 89 1023.6
20260506013127 20 90 1.6 6.4 0.00 0.30 0.30 88 1023.6
20260506012617 20 315 0.0 6.4 0.00 0.30 0.30 88 1023.4
20260506012107 20 68 3.2 6.4 0.00 0.30 0.30 88 1023.3
20260506011557 20 90 3.2 6.4 0.00 0.30 0.30 88 1023.4
20260506010542 20 68 3.2 3.2 0.00 0.30 0.30 89 1023.5
20260506010025 20 180 0.0 3.2 0.00 0.30 0.30 90 1023.5
20260506005516 20 90 1.6 3.2 0.00 0.30 0.30 90 1023.5
20260506005006 20 90 1.6 3.2 0.00 0.30 0.30 90 1023.5
20260506004456 19 113 0.0 3.2 0.00 0.30 0.30 91 1023.2
20260506003945 19 68 0.0 3.2 0.00 0.30 0.30 91 1023.5
20260506003436 20 90 1.6 3.2 0.00 0.30 0.30 91 1023.4
20260506002929 20 158 1.6 6.4 0.00 0.30 0.30 90 1023.3
20260506002417 20 90 3.2 6.4 0.00 0.30 0.30 90 1023.4
20260506001905 20 45 0.0 3.2 0.00 0.30 0.30 90 1023.2
20260506001355 20 68 1.6 3.2 0.00 0.30 0.30 90 1023.2
20260506000846 20 90 0.0 3.2 0.00 0.30 0.30 90 1023.2
20260506000335 20 113 1.6 6.4 0.00 0.30 0.30 89 1023.3
20260505235314 20 45 0.0 3.2 0.00 0.30 0.30 89 1023.4
20260505234804 20 113 1.6 3.2 0.00 0.30 0.30 89 1023.4
20260505234254 20 135 0.0 3.2 0.00 0.30 0.30 90 1023.3
20260505233743 20 45 0.0 3.2 0.00 0.30 0.30 90 1023.1
20260505233235 20 45 0.0 3.2 0.00 0.30 0.30 90 1023.5
20260505232724 20 113 1.6 3.2 0.00 0.30 0.30 90 1023.2
20260505232214 20 90 0.0 3.2 0.00 0.30 0.30 91 1023.3
20260505231703 20 113 0.0 3.2 0.00 0.30 0.30 91 1023.4
20260505230644 20 113 0.0 3.2 0.00 0.30 0.30 92 1023.2
20260505230133 20 180 1.6 3.2 0.00 0.30 0.30 92 1023.6
20260505225623 20 113 1.6 3.2 0.00 0.30 0.30 92 1023.2
20260505225113 20 338 0.0 3.2 0.00 0.30 0.30 92 1023.3
20260505224603 20 90 1.6 3.2 0.00 0.30 0.30 92 1023.2
20260505224053 20 113 0.0 3.2 0.00 0.30 0.30 93 1023.1
20260505223543 20 135 0.0 3.2 0.00 0.30 0.30 93 1023.0
20260505223034 21 113 0.0 3.2 0.00 0.30 0.30 93 1023.0
20260505222523 21 90 0.0 3.2 0.00 0.30 0.30 93 1023.0
20260505222014 21 90 0.0 3.2 0.00 0.30 0.30 93 1023.0
20260505221501 21 68 0.0 3.2 0.00 0.30 0.30 92 1022.8
20260505220443 21 113 0.0 3.2 0.00 0.30 0.30 92 1022.9
20260505215933 21 23 1.6 3.2 0.00 0.30 0.30 92 1022.8
20260505215421 21 90 0.0 3.2 0.00 0.30 0.30 92 1022.8
20260505214911 21 113 0.0 3.2 0.00 0.30 0.30 91 1022.7
20260505214402 21 68 1.6 3.2 0.00 0.30 0.30 91 1022.7
20260505213854 21 113 0.0 3.2 0.00 0.30 0.30 91 1022.8
20260505213341 21 68 1.6 3.2 0.00 0.30 0.30 91 1022.8
20260505212831 21 158 1.6 3.2 0.00 0.30 0.30 91 1022.8
20260505211811 21 90 1.6 6.4 0.00 0.30 0.30 90 1022.6
20260505210750 21 45 1.6 3.2 0.00 0.30 0.30 90 1022.8
20260505210240 21 113 0.0 3.2 0.00 0.30 0.30 90 1022.8
20260505205730 21 68 0.0 3.2 0.00 0.30 0.30 90 1022.8
20260505205221 21 68 1.6 3.2 0.00 0.30 0.30 90 1022.7
20260505204710 21 113 1.6 3.2 0.00 0.30 0.30 90 1022.7
20260505203650 22 135 0.0 3.2 0.00 0.30 0.30 90 1022.8
20260505203140 22 90 0.0 6.4 0.00 0.30 0.30 89 1023.0
20260505202630 22 135 1.6 6.4 0.00 0.30 0.30 89 1022.9
20260505202120 22 90 1.6 6.4 0.00 0.30 0.30 90 1022.8
20260505201610 22 90 1.6 3.2 0.00 0.30 0.30 90 1022.9
20260505200550 22 90 0.0 3.2 0.00 0.30 0.30 90 1023.1
20260505200039 22 135 0.0 3.2 0.00 0.30 0.30 90 1022.7
20260505195019 22 113 1.6 3.2 0.00 0.30 0.30 90 1022.7
20260505193958 22 135 1.6 6.4 0.00 0.30 0.30 89 1022.6
20260505193448 22 68 3.2 6.4 0.00 0.30 0.30 89 1022.5
20260505192939 22 113 1.6 6.4 0.05 0.30 0.30 90 1022.7
20260505192429 22 90 0.0 3.2 0.10 0.30 0.30 90 1022.4
20260505191919 22 113 0.0 3.2 0.15 0.30 0.30 91 1022.9
20260505191408 22 68 0.0 3.2 0.28 0.30 0.30 90 1022.8
20260505190859 22 90 0.0 3.2 0.30 0.30 0.30 89 1023.0
20260505190347 22 158 0.0 3.2 0.30 0.30 0.30 89 1023.1
20260505185840 22 158 0.0 3.2 0.30 0.30 0.30 91 1023.0
20260505185329 22 113 0.0 3.2 0.30 0.30 0.30 91 1023.0
20260505184818 22 0 0.0 3.2 0.30 0.30 0.30 90 1023.5
20260505184308 22 68 0.0 0.0 0.30 0.30 0.30 89 1023.3
20260505183757 22 225 0.0 0.0 0.30 0.30 0.30 88 1023.2
20260505183248 23 225 0.0 0.0 0.30 0.30 0.30 88 1023.2
20260505182738 23 203 0.0 0.0 0.23 0.23 0.23 86 1023.3
20260505182228 23 113 0.0 0.0 0.18 0.18 0.18 85 1022.6
20260505181718 23 203 0.0 0.0 0.15 0.15 0.15 82 1023.1
20260505181209 23 203 0.0 3.2 0.00 0.00 0.00 80 1023.2
20260505180658 23 113 1.6 3.2 0.00 0.00 0.00 78 1023.1
20260505175637 24 90 0.0 3.2 0.00 0.00 0.00 78 1022.9
20260505175126 24 68 1.6 3.2 0.00 0.00 0.00 77 1022.9
20260505174616 24 68 0.0 3.2 0.00 0.00 0.00 77 1023.0
20260505174107 24 90 0.0 3.2 0.00 0.00 0.00 76 1023.1
20260505173556 24 45 0.0 3.2 0.00 0.00 0.00 75 1023.2
20260505173047 24 68 0.0 3.2 0.00 0.00 0.00 75 1023.1
20260505172538 24 90 0.0 3.2 0.00 0.00 0.00 75 1023.5
20260505172026 24 113 0.0 3.2 0.00 0.00 0.00 76 1023.5
20260505171518 24 45 1.6 3.2 0.00 0.00 0.00 75 1023.5
20260505171006 24 90 1.6 6.4 0.00 0.00 0.00 74 1023.4
20260505170456 25 113 0.0 6.4 0.00 0.00 0.00 74 1023.4
20260505165945 25 0 3.2 6.4 0.00 0.00 0.00 73 1023.5
20260505165435 25 45 3.2 3.2 0.00 0.00 0.00 71 1023.6
20260505164925 25 113 0.0 3.2 0.00 0.00 0.00 70 1023.9
20260505163904 24 90 0.0 0.0 0.00 0.00 0.00 74 1023.7
20260505163355 24 90 0.0 3.2 0.00 0.00 0.00 75 1024.0
20260505162845 23 68 0.0 3.2 0.00 0.00 0.00 75 1024.0
20260505162334 24 203 0.0 3.2 0.00 0.00 0.00 75 1024.3
20260505161824 24 135 0.0 3.2 0.00 0.00 0.00 74 1024.3
20260505161315 24 180 0.0 3.2 0.00 0.00 0.00 74 1024.4
20260505160803 24 113 0.0 3.2 0.00 0.00 0.00 73 1024.3
20260505160254 24 113 0.0 3.2 0.00 0.00 0.00 74 1024.6
20260505153200 24 45 1.6 6.4 0.00 0.00 0.00 73 1024.4
20260505152644 24 23 1.6 6.4 0.00 0.00 0.00 72 1024.1
20260505152133 24 68 3.2 6.4 0.00 0.00 0.00 73 1024.3
20260505151623 24 293 3.2 6.4 0.00 0.00 0.00 73 1024.1
20260505151113 24 338 3.2 6.4 0.00 0.00 0.00 73 1024.7
20260505150603 24 23 4.8 6.4 0.00 0.00 0.00 73 1024.4
20260505140401 22 338 0.0 6.4 0.00 0.00 0.00 78 1024.7
20260505124630 18 90 0.0 3.2 0.00 0.00 0.00 80 1024.1
20260505123610 18 135 0.0 3.2 0.00 0.00 0.00 80 1024.6
20260505123059 18 135 0.0 3.2 0.00 0.00 0.00 84 1024.4
20260505122549 17 0 3.2 3.2 0.00 0.00 0.00 84 1024.8
20260505122039 17 113 0.0 3.2 0.00 0.00 0.00 84 1024.6
20260505121020 17 113 0.0 3.2 0.00 0.00 0.00 83 1024.3
20260505115449 17 45 0.0 3.2 0.00 0.00 0.00 85 1024.6
20260505114430 17 0 0.0 3.2 0.00 0.00 0.00 85 1024.2
20260505113408 16 90 0.0 3.2 0.00 0.00 0.00 85 1024.2
20260505112348 16 23 0.0 3.2 0.00 0.00 0.00 85 1024.1
20260505111837 16 45 0.0 3.2 0.00 0.00 0.00 84 1024.3
20260505111328 16 90 0.0 3.2 0.00 0.00 0.00 84 1024.1
20260505110817 15 68 0.0 3.2 0.00 0.00 0.00 85 1024.1
20260505110308 15 68 0.0 0.0 0.00 0.00 0.00 85 1024.2